[Iaude] MPEC T41: 2016 TR2 [a=1.72,e=0.44,i=5.3,H=26.3]

mpec at si.edu mpec at si.edu
Wed Oct 5 12:11:47 EDT 2016


M.P.E.C. 2016-T41                                Issued 2016 Oct. 5, 16:07 UT
 
     The Minor Planet Electronic Circulars contain information on unusual
         minor planets and routine data on comets.  They are published
    on behalf of Division F of the International Astronomical Union by the
          Minor Planet Center, Smithsonian Astrophysical Observatory,
                          Cambridge, MA 02138, U.S.A.

             Prepared using the Tamkin Foundation Computer Network

                              MPC at CFA.HARVARD.EDU
            URL http://www.minorplanetcenter.net/    ISSN 1523-6714


                                   2016 TR2
 
Observations:
     K16T02R* C2016 10 04.36137 01 07 21.88 +16 09 26.3          20.0 VqET041G96
     K16T02R  C2016 10 04.36886 01 07 23.08 +16 10 15.6          21.0 VqET041G96
     K16T02R  C2016 10 04.37626 01 07 24.28 +16 11 03.3          20.9 VqET041G96
     K16T02R  C2016 10 04.38367 01 07 25.50 +16 11 52.2          20.5 VqET041G96
     K16T02R  C2016 10 04.42323 01 07 32.14 +16 16 06.1          21.0 VqET041G96
     K16T02R  C2016 10 04.43065 01 07 33.48 +16 16 53.3          20.9 VqET041G96
     K16T02R  C2016 10 04.44570 01 07 36.05 +16 18 29.6          20.4 VqET041G96
     K16T02R KC2016 10 05.06820 01 09 51.74 +17 21 21.8                qET041J95
     K16T02R KC2016 10 05.07709 01 09 53.12 +17 22 11.7                qET041J95
     K16T02R KC2016 10 05.09042 01 09 55.16 +17 23 27.8          20.7 RqET041J95
     K16T02R  C2016 10 05.40786 01 10 54.42 +17 53 42.0          20.5 RoET041926
     K16T02R  C2016 10 05.41446 01 10 55.34 +17 54 16.5          20.5 RoET041926
     K16T02R  C2016 10 05.41946 01 10 56.03 +17 54 42.9          20.3 RoET041926
 
Observer details:
926 Tenagra II Observatory.  Observers M. Schwartz, P. R. Holvorcem.  Measurer
    M. Schwartz.  0.81-m f/7 Ritchey-Chretien + CCD.
G96 Mt. Lemmon Survey.  Observer A. D. Grauer.  Measurers E. J. Christensen,
    D. C. Fuls, A. R. Gibbs, A. D. Grauer, J. A. Johnson, R. A. Kowalski,
    S. M. Larson, G. J. Leonard, R. G. Matheny, R. L. Seaman, F. C. Shelly.
    1.5-m reflector + 10K CCD.
J95 Great Shefford.  Observer P. Birtwhistle.  0.40-m f/6.0 Schmidt-Cassegrain
    + CCD.
 
Orbital elements:
2016 TR2                                                 Earth MOID = 0.0134 AU
Epoch 2016 July 31.0 TT = JDT 2457600.5                 MPC
M 346.73382              (2000.0)            P               Q
n   0.43753761     Peri.  322.95938     +0.87175377     +0.48978314
a   1.7184060      Node     7.74508     -0.42421398     +0.76738206
e   0.4357761      Incl.    5.34928     -0.24512827     +0.41380822
P   2.25           H   26.3           G   0.15           U   7
Residuals in seconds of arc
161004 G96  0.1-  0.2-    161004 G96  0.9+  0.2-    161005 926  0.2-  0.0
161004 G96  0.3-  0.1+    161004 G96  0.0   0.7+    161005 926  0.1+  0.1-
161004 G96  0.3-  0.4-    161005 J95  0.3+  0.2+    161005 926  0.1+  0.2+
161004 G96  0.2-  0.3+    161005 J95  0.2+  0.5-
161004 G96  0.0   0.2-    161005 J95  0.5-  0.2+

Ephemeris:
2016 TR2                 a,e,i = 1.72, 0.44, 5                   q = 0.9696
Date    TT    R. A. (2000) Decl.     Delta      r     Elong.  Phase     V
2016 09 05    14 14 12.9 -41 39 28   0.1017  0.9718    66.3   108.2    25.3
...
2016 09 20    16 06 25.3 -59 13 26   0.03160 0.9982    78.1   100.1    22.4
...
2016 09 28    00 13 43.0 -11 48 24   0.02194 1.0233   166.1    13.6    18.8
...
2016 10 04    01 06 00.4 +15 28 51   0.04732 1.0465   167.2    12.2    20.5
2016 10 05    01 09 40.4 +17 16 17   0.05216 1.0507   166.0    13.3    20.8
2016 10 06    01 12 45.1 +18 44 40   0.05707 1.0550   165.1    14.1    21.0
...
2016 10 12    01 24 01.9 +23 49 09   0.08779 1.0823   163.2    15.4    22.0
...
2016 10 20    01 30 41.3 +26 17 32   0.1316  1.1228   163.9    14.2    23.0
...
2016 11 04    01 37 09.1 +26 59 10   0.2252  1.2077   161.8    14.9    24.3

A. U. Tomatic                (C) Copyright 2016 MPC           M.P.E.C. 2016-T41




More information about the Iaude mailing list